• In Belarus
  • List of Countries
  • For 7 days
  • Water Temperature
  • Satellite Maps
  • Weather Map
  • Weather Widgets
  • user-avatar
    Login

    Hourly Weather Kabul

    Today, 17 December, Monday

    Time Temperature Precipitation Wind Pressure Humidity
    00:00 +3°C° 0 mm 1 mps 610 mmHg 21%
    01:00 +3°C° 0 mm 1 mps 610 mmHg 21%
    02:00 +2°C° 0 mm 1 mps 609 mmHg 21%
    03:00 +2°C° 0 mm 1 mps 609 mmHg 21%
    04:00 +2°C° 0 mm 1 mps 609 mmHg 21%
    05:00 +1°C° 0 mm 2 mps 609 mmHg 23%
    06:00 +1°C° 0 mm 2 mps 609 mmHg 22%
    07:00 +1°C° 0 mm 2 mps 610 mmHg 21%
    08:00 +2°C° 0 mm 2 mps 610 mmHg 21%
    09:00 +5°C° 0 mm 1 mps 611 mmHg 18%
    10:00 +7°C° 0 mm 1 mps 611 mmHg 16%
    11:00 +10°C° 0 mm 1 mps 612 mmHg 14%
    12:00 +10°C° 0 mm 1 mps 612 mmHg 13%
    13:00 +11°C° 0 mm 1 mps 612 mmHg 13%
    14:00 +12°C° 0 mm 1 mps 612 mmHg 12%
    15:00 +10°C° 0 mm 1 mps 611 mmHg 15%
    16:00 +9°C° 0 mm 1 mps 610 mmHg 17%
    17:00 +8°C° 0 mm 1 mps 610 mmHg 19%
    18:00 +7°C° 0 mm 1 mps 610 mmHg 20%
    19:00 +6°C° 0 mm 1 mps 610 mmHg 20%
    20:00 +5°C° 0 mm 1 mps 610 mmHg 21%
    21:00 +5°C° 0 mm 1 mps 610 mmHg 21%
    22:00 +5°C° 0 mm 1 mps 610 mmHg 22%
    23:00 +4°C° 0 mm 1 mps 610 mmHg 22%

    Tomorrow, 18 December, Tuesday

    Time Temperature Precipitation Wind Pressure Humidity
    00:00 +3°C° 0 mm 2 mps 610 mmHg 22%
    01:00 +3°C° 0 mm 2 mps 609 mmHg 22%
    02:00 +3°C° 0 mm 2 mps 609 mmHg 23%
    03:00 +2°C° 0 mm 2 mps 609 mmHg 23%
    04:00 +2°C° 0 mm 2 mps 609 mmHg 23%
    05:00 +2°C° 0 mm 2 mps 609 mmHg 23%
    06:00 +2°C° 0 mm 2 mps 609 mmHg 22%
    07:00 +3°C° 0 mm 2 mps 609 mmHg 22%
    08:00 +3°C° 0 mm 2 mps 609 mmHg 21%
    09:00 +5°C° 0 mm 2 mps 610 mmHg 18%
    10:00 +7°C° 0 mm 2 mps 611 mmHg 16%
    11:00 +11°C° 0 mm 1 mps 612 mmHg 13%
    12:00 +12°C° 0 mm 1 mps 611 mmHg 13%
    13:00 +12°C° 0 mm 1 mps 611 mmHg 12%
    14:00 +13°C° 0 mm 1 mps 610 mmHg 12%
    15:00 +12°C° 0 mm 1 mps 610 mmHg 14%
    16:00 +10°C° 0 mm 1 mps 609 mmHg 16%
    17:00 +9°C° 0 mm 1 mps 609 mmHg 18%
    18:00 +8°C° 0 mm 1 mps 608 mmHg 19%
    19:00 +8°C° 0 mm 1 mps 608 mmHg 19%
    20:00 +7°C° 0 mm 1 mps 608 mmHg 20%
    21:00 +6°C° 0 mm 1 mps 608 mmHg 20%
    22:00 +6°C° 0 mm 1 mps 607 mmHg 20%
    23:00 +5°C° 0 mm 1 mps 607 mmHg 21%

    Day after tomorrow, 19 December, Wednesday

    Time Temperature Precipitation Wind Pressure Humidity
    00:00 +5°C° 0 mm 1 mps 607 mmHg 21%
    01:00 +4°C° 0 mm 1 mps 606 mmHg 22%
    02:00 +4°C° 0 mm 1 mps 606 mmHg 22%
    03:00 +4°C° 0 mm 1 mps 606 mmHg 22%
    04:00 +3°C° 0 mm 1 mps 605 mmHg 23%
    05:00 +3°C° 0 mm 1 mps 605 mmHg 23%
    06:00 +3°C° 0 mm 1 mps 605 mmHg 22%
    07:00 +3°C° 0 mm 1 mps 606 mmHg 22%
    08:00 +3°C° 0 mm 1 mps 606 mmHg 21%
    09:00 +5°C° 0 mm 1 mps 607 mmHg 19%
    10:00 +7°C° 0 mm 1 mps 608 mmHg 16%
    11:00 +9°C° 0 mm 1 mps 609 mmHg 13%
    12:00 +10°C° 0 mm 1 mps 609 mmHg 13%
    13:00 +10°C° 0 mm 2 mps 609 mmHg 12%
    14:00 +10°C° 0 mm 2 mps 609 mmHg 12%
    15:00 +9°C° 0 mm 2 mps 608 mmHg 14%
    16:00 +8°C° 0 mm 2 mps 608 mmHg 16%
    17:00 +7°C° 0 mm 2 mps 608 mmHg 18%
    18:00 +6°C° 0 mm 2 mps 608 mmHg 20%
    19:00 +5°C° 0 mm 2 mps 609 mmHg 22%
    20:00 +4°C° 0 mm 2 mps 609 mmHg 24%
    21:00 +4°C° 0 mm 2 mps 609 mmHg 25%
    22:00 +3°C° 0 mm 2 mps 609 mmHg 26%
    23:00 +3°C° 0 mm 2 mps 609 mmHg 27%

    20 December, Thursday

    Time Temperature Precipitation Wind Pressure Humidity
    00:00 +2°C° 0 mm 2 mps 609 mmHg 28%
    01:00 +2°C° 0 mm 2 mps 609 mmHg 29%
    02:00 +2°C° 0 mm 2 mps 609 mmHg 30%
    03:00 +2°C° 0 mm 2 mps 609 mmHg 30%
    04:00 0°C° 0 mm 3 mps 609 mmHg 31%
    05:00 0°C° 0 mm 3 mps 609 mmHg 32%
    06:00 0°C° 0 mm 3 mps 609 mmHg 32%
    07:00 0°C° 0 mm 3 mps 609 mmHg 32%
    08:00 0°C° 0 mm 3 mps 610 mmHg 32%
    09:00 +3°C° 0 mm 2 mps 610 mmHg 28%
    10:00 +5°C° 0 mm 2 mps 611 mmHg 24%
    11:00 +7°C° 0 mm 2 mps 611 mmHg 21%
    12:00 +8°C° 0 mm 2 mps 611 mmHg 20%
    13:00 +8°C° 0 mm 2 mps 611 mmHg 19%
    14:00 +10°C° 0 mm 1 mps 610 mmHg 17%
    15:00 +9°C° 0 mm 1 mps 610 mmHg 19%
    16:00 +8°C° 0 mm 1 mps 609 mmHg 21%
    17:00 +7°C° 0 mm 1 mps 609 mmHg 23%
    18:00 +5°C° 0 mm 2 mps 609 mmHg 23%
    19:00 +5°C° 0 mm 2 mps 609 mmHg 24%
    20:00 +4°C° 0 mm 2 mps 609 mmHg 25%
    21:00 +3°C° 0 mm 2 mps 609 mmHg 25%
    22:00 +3°C° 0 mm 2 mps 609 mmHg 25%
    23:00 +3°C° 0 mm 2 mps 608 mmHg 26%

    21 December, Friday

    Time Temperature Precipitation Wind Pressure Humidity
    00:00 +2°C° 0 mm 2 mps 608 mmHg 26%
    01:00 +2°C° 0 mm 2 mps 607 mmHg 26%
    02:00 +2°C° 0 mm 2 mps 607 mmHg 26%
    03:00 +1°C° 0 mm 2 mps 607 mmHg 26%
    04:00 +1°C° 0 mm 2 mps 606 mmHg 26%
    05:00 +1°C° 0 mm 2 mps 606 mmHg 25%
    06:00 +2°C° 0 mm 1 mps 606 mmHg 25%
    07:00 +2°C° 0 mm 1 mps 606 mmHg 24%
    08:00 +2°C° 0 mm 1 mps 606 mmHg 24%
    09:00 +4°C° 0 mm 1 mps 607 mmHg 21%
    10:00 +7°C° 0 mm 1 mps 608 mmHg 18%
    11:00 +9°C° 0 mm 1 mps 609 mmHg 14%
    12:00 +10°C° 0 mm 1 mps 609 mmHg 14%
    13:00 +10°C° 0 mm 1 mps 608 mmHg 13%
    14:00 +11°C° 0 mm 1 mps 608 mmHg 13%
    15:00 +10°C° 0 mm 1 mps 608 mmHg 15%
    16:00 +8°C° 0 mm 1 mps 607 mmHg 17%
    17:00 +7°C° 0 mm 1 mps 607 mmHg 19%
    18:00 +6°C° 0 mm 1 mps 607 mmHg 20%
    19:00 +5°C° 0 mm 1 mps 606 mmHg 21%
    20:00 +4°C° 0 mm 1 mps 606 mmHg 21%
    21:00 +4°C° 0 mm 1 mps 606 mmHg 22%
    22:00 +3°C° 0 mm 1 mps 606 mmHg 22%
    23:00 +3°C° 0 mm 1 mps 606 mmHg 22%

    22 December, Saturday

    Time Temperature Precipitation Wind Pressure Humidity
    00:00 +3°C° 0 mm 1 mps 606 mmHg 22%
    01:00 +2°C° 0 mm 1 mps 605 mmHg 22%
    02:00 +2°C° 0 mm 1 mps 605 mmHg 22%
    03:00 +2°C° 0 mm 1 mps 605 mmHg 22%
    04:00 +1°C° 0 mm 1 mps 604 mmHg 22%
    05:00 +1°C° 0 mm 1 mps 604 mmHg 23%
    06:00 +1°C° 0 mm 1 mps 604 mmHg 22%
    07:00 +1°C° 0 mm 1 mps 605 mmHg 22%
    08:00 +1°C° 0 mm 1 mps 605 mmHg 21%
    09:00 +3°C° 0 mm 1 mps 606 mmHg 19%
    10:00 +5°C° 0 mm 1 mps 606 mmHg 17%
    11:00 +6°C° 0 mm 2 mps 607 mmHg 14%
    12:00 +6°C° 0 mm 2 mps 607 mmHg 14%
    13:00 +7°C° 0 mm 2 mps 606 mmHg 14%
    14:00 +7°C° 0 mm 2 mps 606 mmHg 14%
    15:00 +6°C° 0 mm 2 mps 606 mmHg 15%
    16:00 +6°C° 0 mm 2 mps 606 mmHg 17%
    17:00 +5°C° 0 mm 2 mps 606 mmHg 18%
    18:00 +4°C° 0 mm 2 mps 606 mmHg 19%
    19:00 +3°C° 0 mm 2 mps 606 mmHg 20%
    20:00 +2°C° 0 mm 2 mps 606 mmHg 21%
    21:00 +1°C° 0 mm 2 mps 606 mmHg 22%
    22:00 +1°C° 0 mm 2 mps 605 mmHg 23%
    23:00 +1°C° 0 mm 2 mps 605 mmHg 23%
    Show more